CW5404 Weather Reports


time (UTC)temp
F
wind
direction
speed
knots
gust
knots
rain 1hr
in
rain 24hr
in
rain mn
in
humidity
%
barometer
mb
20260508012405 69 61 0.9 3.5 0.00 0.00 0.00 55 1015.5
20260508011905 69 22 0.0 4.3 0.00 0.00 0.00 55 1015.5
20260508010904 69 38 1.7 4.3 0.00 0.00 0.00 54 1015.5
20260508010404 69 61 1.7 4.3 0.00 0.00 0.00 55 1015.5
20260508005904 69 59 0.0 2.6 0.00 0.00 0.00 53 1015.5
20260508005404 69 58 0.0 2.6 0.00 0.00 0.00 54 1015.5
20260508004904 69 48 2.6 3.5 0.00 0.00 0.00 53 1015.5
20260508004404 69 38 2.6 4.3 0.00 0.00 0.00 52 1015.5
20260508003404 70 63 2.6 4.3 0.00 0.00 0.00 54 1015.5
20260507235404 70 71 2.6 4.3 0.00 0.00 0.00 52 1015.8
20260507234404 70 106 3.5 5.2 0.00 0.00 0.00 53 1015.8
20260507231904 69 62 2.6 3.5 0.00 0.00 0.00 52 1016.2
20260507230404 69 195 2.6 5.2 0.00 0.00 0.00 54 1016.3
20260507224904 69 5 1.7 5.2 0.00 0.00 0.00 53 1016.7
20260507224403 69 54 0.9 4.3 0.00 0.00 0.00 55 1016.7
20260507223903 69 127 1.7 3.5 0.00 0.00 0.00 55 1016.8
20260507223403 69 88 0.0 5.2 0.00 0.00 0.00 53 1016.8
20260507222903 69 129 0.0 5.2 0.00 0.00 0.00 54 1016.8
20260507222403 69 168 1.7 4.3 0.00 0.00 0.00 55 1017.0
20260507221903 69 117 2.6 5.2 0.00 0.00 0.00 55 1017.0
20260507221403 69 42 1.7 5.2 0.00 0.00 0.00 53 1017.0
20260507220903 69 170 0.0 4.3 0.00 0.00 0.00 56 1017.2
20260507220403 68 101 1.7 3.5 0.00 0.00 0.00 57 1017.2
20260507215904 68 175 1.7 4.3 0.00 0.00 0.00 56 1017.2
20260507215403 68 174 3.5 4.3 0.00 0.00 0.00 56 1017.5
20260507214434 67 130 0.9 6.1 0.00 0.00 0.00 56 1017.5
20260507213903 67 175 1.7 5.2 0.00 0.00 0.00 55 1017.6
20260507212905 66 58 0.9 4.3 0.00 0.00 0.00 56 1017.6
20260507212403 66 148 0.0 4.3 0.00 0.00 0.00 54 1017.8
20260507211904 66 126 1.7 4.3 0.00 0.00 0.00 56 1017.8
20260507211404 66 79 1.7 5.2 0.00 0.00 0.00 57 1017.8
20260507210903 66 106 0.9 6.1 0.00 0.00 0.00 55 1018.0
20260507210404 66 175 0.0 6.1 0.00 0.00 0.00 55 1018.0
20260507205934 66 187 0.0 6.1 0.00 0.00 0.00 55 1018.0
20260507205404 66 181 3.5 6.1 0.00 0.00 0.00 57 1018.2
20260507204903 66 142 2.6 5.2 0.00 0.00 0.00 56 1018.2
20260507204403 66 94 0.0 5.2 0.00 0.00 0.00 58 1018.2
20260507203903 65 130 4.3 5.2 0.00 0.00 0.00 60 1018.3
20260507203403 65 106 1.7 6.1 0.00 0.00 0.00 60 1018.3
20260507202903 65 80 0.9 6.1 0.00 0.00 0.00 58 1018.3
20260507202403 65 62 0.9 6.1 0.00 0.00 0.00 58 1018.5
20260507201903 65 191 3.5 5.2 0.00 0.00 0.00 59 1018.5
20260507201403 64 123 2.6 5.2 0.00 0.00 0.00 61 1018.5
20260507200903 64 207 3.5 7.0 0.00 0.00 0.00 59 1018.7
20260507200403 64 122 0.0 7.0 0.00 0.00 0.00 59 1018.7
20260507195933 64 142 3.5 5.2 0.00 0.00 0.00 59 1018.7
20260507195403 63 126 0.9 5.2 0.00 0.00 0.00 62 1018.8
20260507194903 64 86 2.6 6.1 0.00 0.00 0.00 61 1018.8
20260507194403 63 156 0.9 6.1 0.00 0.00 0.00 59 1018.8
20260507193903 63 59 3.5 4.3 0.00 0.00 0.00 61 1018.8
20260507193403 63 49 2.6 3.5 0.00 0.00 0.00 59 1018.8
20260507192903 63 71 1.7 6.1 0.00 0.00 0.00 61 1018.8
20260507192403 63 223 0.9 6.1 0.00 0.00 0.00 59 1019.0
20260507191902 63 63 0.0 5.2 0.00 0.00 0.00 60 1019.0
20260507191402 63 59 1.7 5.2 0.00 0.00 0.00 60 1019.0
20260507190902 63 113 0.9 4.3 0.00 0.00 0.00 60 1019.2
20260507190402 63 194 0.9 4.3 0.00 0.00 0.00 61 1019.2
20260507185932 62 208 3.5 4.3 0.00 0.00 0.00 60 1019.2
20260507185402 62 89 4.3 5.2 0.00 0.00 0.00 60 1019.3
20260507184902 62 231 0.9 5.2 0.00 0.00 0.00 60 1019.3
20260507184402 62 76 4.3 4.3 0.00 0.00 0.00 63 1019.3
20260507183902 61 155 1.7 4.3 0.00 0.00 0.00 64 1019.3
20260507183402 61 208 1.7 4.3 0.00 0.00 0.00 63 1019.3
20260507182903 60 115 0.9 6.1 0.00 0.00 0.00 65 1019.3
20260507182402 61 5 0.0 6.1 0.00 0.00 0.00 64 1019.4
20260507181902 61 137 2.6 3.5 0.00 0.00 0.00 63 1019.4
20260507181404 61 71 0.0 4.3 0.00 0.00 0.00 63 1019.4
20260507180432 62 107 3.5 4.3 0.00 0.00 0.00 65 1019.5
20260507175903 61 85 0.0 4.3 0.00 0.00 0.00 65 1019.5
20260507175432 62 163 0.9 3.5 0.00 0.00 0.00 64 1019.7
20260507174902 62 101 1.7 2.6 0.00 0.00 0.00 66 1019.7
20260507174402 61 43 0.0 4.3 0.00 0.00 0.00 69 1019.7
20260507173932 60 16 1.7 4.3 0.00 0.00 0.00 70 1019.7
20260507173432 60 122 1.7 4.3 0.00 0.00 0.00 68 1019.7
20260507172902 60 98 1.7 4.3 0.00 0.00 0.00 68 1019.7
20260507172402 60 22 0.9 4.3 0.00 0.00 0.00 68 1019.7
20260507171932 60 74 1.7 4.3 0.00 0.00 0.00 70 1019.7
20260507171402 60 48 1.7 4.3 0.00 0.00 0.00 71 1019.7
20260507170902 60 148 1.7 4.3 0.00 0.00 0.00 69 1019.7
20260507170402 59 91 0.9 2.6 0.00 0.00 0.00 71 1019.7
20260507164902 58 32 2.6 4.3 0.00 0.00 0.00 72 1019.7
20260507164402 58 38 4.3 4.3 0.00 0.00 0.00 72 1019.7
20260507163902 58 200 0.0 3.5 0.00 0.00 0.00 73 1019.8
20260507163402 58 143 0.0 4.3 0.00 0.00 0.00 73 1019.8
20260507162901 57 128 0.0 4.3 0.00 0.00 0.00 74 1019.8
20260507162402 57 47 3.5 3.5 0.00 0.00 0.00 74 1019.7
20260507161932 57 63 1.7 3.5 0.00 0.00 0.00 74 1019.7
20260507161402 57 170 2.6 4.3 0.00 0.00 0.00 73 1019.7
20260507160902 58 97 1.7 4.3 0.00 0.00 0.00 73 1019.8
20260507160432 58 321 0.0 2.6 0.00 0.00 0.00 75 1019.8
20260507155932 57 317 0.0 3.5 0.00 0.00 0.00 78 1019.8
20260507155402 56 44 0.0 3.5 0.00 0.00 0.00 78 1019.9
20260507153402 55 360 2.6 3.5 0.00 0.00 0.00 79 1020.0
20260507152902 55 360 0.9 3.5 0.00 0.00 0.00 80 1020.0
20260507151902 55 360 0.0 3.5 0.00 0.00 0.00 80 1020.0
20260507151402 55 360 0.9 3.5 0.00 0.00 0.00 81 1020.0
20260507150931 55 360 0.9 1.7 0.00 0.00 0.00 82 1020.0
20260507150402 54 360 0.0 1.7 0.00 0.00 0.00 82 1020.0
20260507145902 54 360 0.0 1.7 0.00 0.00 0.00 82 1020.0
20260507145431 54 360 0.0 1.7 0.00 0.00 0.00 82 1019.9
20260507143902 54 360 0.0 0.0 0.00 0.00 0.00 84 1019.9
20260507142431 54 360 0.0 0.0 0.00 0.00 0.00 86 1019.8
20260507141931 53 360 0.0 0.0 0.00 0.00 0.00 86 1019.8
20260507141401 53 360 0.0 0.0 0.00 0.00 0.00 86 1019.8
20260507140931 53 360 0.0 0.0 0.00 0.00 0.00 86 1019.7
20260507140431 53 360 0.0 0.0 0.00 0.00 0.00 87 1019.7
20260507135902 53 360 0.0 0.0 0.00 0.00 0.00 87 1019.7
20260507135402 53 360 0.0 0.0 0.00 0.00 0.00 87 1019.6
20260507134901 53 360 0.0 0.0 0.00 0.00 0.00 88 1019.6
20260507134431 53 360 0.0 0.0 0.00 0.00 0.00 88 1019.6
20260507133901 53 360 0.0 0.0 0.00 0.00 0.00 87 1019.6
20260507133402 53 360 0.0 0.0 0.00 0.00 0.00 88 1019.6
20260507132901 53 360 0.0 0.0 0.00 0.00 0.00 88 1019.6
20260507132401 53 360 0.0 0.0 0.00 0.00 0.00 88 1019.6
20260507131931 53 360 0.0 0.0 0.00 0.00 0.00 88 1019.6
20260507131401 53 360 0.0 0.0 0.00 0.00 0.00 88 1019.6
20260507130431 53 360 0.0 0.0 0.00 0.00 0.00 88 1019.7
20260507125901 53 360 0.0 0.0 0.00 0.00 0.00 88 1019.7
20260507124901 53 360 0.0 0.0 0.00 0.00 0.00 88 1019.7
20260507124402 53 360 0.0 0.0 0.00 0.00 0.00 88 1019.7
20260507123901 53 360 0.0 0.0 0.00 0.00 0.00 88 1019.8
20260507123401 53 360 0.0 0.0 0.00 0.00 0.00 88 1019.8
20260507122931 53 360 0.0 0.0 0.00 0.00 0.00 88 1019.8
20260507122431 53 360 0.0 0.0 0.00 0.00 0.00 88 1019.8
20260507121901 53 360 0.0 0.0 0.00 0.00 0.00 88 1019.8
20260507121401 53 360 0.0 0.0 0.00 0.00 0.00 88 1019.8
20260507120901 53 360 0.0 0.0 0.00 0.00 0.00 88 1020.0
20260507120401 53 360 0.0 0.0 0.00 0.00 0.00 88 1020.0
20260507115901 53 360 0.0 0.0 0.00 0.00 0.00 88 1020.0
20260507114901 53 360 0.0 0.0 0.00 0.00 0.00 87 1020.1
20260507114401 53 360 0.0 0.0 0.00 0.00 0.00 87 1020.1
20260507113431 53 360 0.0 0.0 0.00 0.00 0.00 88 1020.2
20260507112931 53 360 0.0 0.0 0.00 0.00 0.00 88 1020.2
20260507112401 53 360 0.0 0.0 0.00 0.00 0.00 88 1020.1
20260507111901 53 360 0.0 0.0 0.00 0.00 0.00 88 1020.1
20260507111401 53 360 0.0 0.0 0.00 0.00 0.00 88 1020.1
20260507110901 53 360 0.0 0.0 0.00 0.00 0.00 88 1020.3
20260507110401 53 360 0.0 0.0 0.00 0.00 0.00 88 1020.3
20260507104901 53 360 0.0 0.0 0.00 0.00 0.00 87 1020.3
20260507104431 53 360 0.0 0.0 0.00 0.00 0.00 87 1020.3
20260507103931 53 360 0.0 0.0 0.00 0.00 0.00 87 1020.4
20260507102431 52 360 0.0 0.0 0.00 0.00 0.00 88 1020.4
20260507101931 52 360 0.0 0.0 0.00 0.00 0.00 88 1020.4
20260507101401 52 360 0.0 0.0 0.00 0.00 0.00 88 1020.4
20260507100901 52 360 0.0 0.0 0.00 0.00 0.00 88 1020.5
20260507100401 52 360 0.0 0.0 0.00 0.00 0.00 88 1020.5
20260507095901 52 360 0.0 0.0 0.00 0.00 0.00 88 1020.5
20260507095402 52 360 0.0 0.0 0.00 0.00 0.00 88 1020.6
20260507094931 52 360 0.0 0.0 0.00 0.00 0.00 88 1020.6
20260507094401 52 360 0.0 0.0 0.00 0.00 0.00 89 1020.6
20260507093931 52 360 0.0 0.0 0.00 0.00 0.00 89 1020.7
20260507093401 52 360 0.0 0.0 0.00 0.00 0.00 89 1020.7
20260507092901 52 360 0.0 0.0 0.00 0.00 0.00 89 1020.7
20260507091401 52 235 0.0 0.0 0.00 0.00 0.00 89 1020.9
20260507090931 52 360 0.0 0.0 0.00 0.00 0.00 90 1020.9
20260507090401 52 360 0.0 0.0 0.00 0.00 0.00 90 1020.9
20260507085901 52 360 0.0 0.0 0.00 0.00 0.00 90 1020.9
20260507085401 52 236 0.0 0.0 0.00 0.00 0.00 90 1020.9
20260507084401 52 360 0.0 0.0 0.00 0.00 0.00 89 1020.9
20260507083931 52 360 0.0 0.0 0.00 0.00 0.00 89 1020.9
20260507083401 52 360 0.0 0.0 0.00 0.00 0.00 89 1020.9
20260507082901 52 360 0.0 0.0 0.00 0.00 0.00 89 1020.9
20260507082400 52 360 0.0 0.0 0.00 0.00 0.00 89 1020.9
20260507081901 52 235 0.0 0.0 0.00 0.00 0.00 89 1020.9
20260507081400 52 360 0.0 0.0 0.00 0.00 0.00 89 1020.9
20260507075901 52 360 0.0 0.0 0.00 0.00 0.00 89 1020.9
20260507075400 52 360 0.0 0.0 0.00 0.00 0.00 89 1020.9
20260507074930 52 360 0.0 0.0 0.00 0.00 0.00 89 1020.9
20260507074401 52 360 0.0 0.0 0.00 0.00 0.00 89 1020.9
20260507073900 52 360 0.0 0.9 0.00 0.00 0.00 89 1020.9
20260507072900 52 360 0.0 0.0 0.00 0.00 0.00 89 1020.9
20260507071930 51 360 0.0 0.0 0.00 0.00 0.00 89 1020.8
20260507071400 51 360 0.0 0.0 0.00 0.00 0.00 89 1020.8
20260507070930 51 236 0.0 0.0 0.00 0.00 0.00 89 1020.7
20260507070400 51 236 0.0 0.0 0.00 0.00 0.00 88 1020.7
20260507065930 51 236 0.0 0.0 0.00 0.00 0.00 88 1020.7
20260507065431 51 236 0.0 0.0 0.00 0.00 0.00 88 1020.7
20260507064430 51 236 0.0 0.0 0.00 0.00 0.00 87 1020.7
20260507063931 51 235 0.0 0.0 0.00 0.00 0.00 87 1020.7
20260507063430 51 235 0.0 0.0 0.00 0.00 0.00 87 1020.7
20260507062900 51 235 0.0 0.0 0.00 0.00 0.00 86 1020.7
20260507062400 51 235 0.0 0.0 0.00 0.00 0.00 86 1020.7
20260507061931 51 235 0.0 0.0 0.00 0.00 0.00 86 1020.7
20260507061400 51 235 0.0 0.0 0.00 0.00 0.00 85 1020.7
20260507060400 51 235 0.0 0.0 0.00 0.00 0.00 84 1020.7
20260507055900 51 235 0.0 0.9 0.00 0.00 0.00 84 1020.7
20260507055430 52 235 0.0 0.9 0.00 0.00 0.00 83 1020.6
20260507054900 52 234 0.9 0.9 0.00 0.00 0.00 83 1020.6
20260507054430 52 234 0.0 0.0 0.00 0.00 0.00 83 1020.6
20260507053930 52 235 0.0 0.0 0.00 0.00 0.00 83 1020.6
20260507053400 52 360 0.0 0.0 0.00 0.00 0.00 82 1020.6
20260507052930 52 360 0.0 0.0 0.00 0.00 0.00 82 1020.6
20260507052430 53 360 0.0 0.0 0.00 0.00 0.00 82 1020.5
20260507051400 53 360 0.0 0.0 0.00 0.00 0.00 82 1020.5
20260507050900 53 235 0.0 1.7 0.00 0.00 0.00 82 1020.4
20260507045900 53 360 0.0 1.7 0.00 0.00 0.00 82 1020.4
20260507044930 53 360 0.0 0.9 0.00 0.00 0.00 82 1020.3
20260507043930 54 360 0.0 2.6 0.00 0.00 0.00 81 1020.3
20260507043400 54 360 0.0 2.6 0.00 0.00 0.00 81 1020.3
20260507042430 54 360 0.0 0.9 0.00 0.00 0.00 81 1020.2
20260507041930 54 360 0.0 0.9 0.00 0.00 0.00 80 1020.2
20260507041430 54 360 0.0 0.9 0.00 0.00 0.00 80 1020.2
20260507040930 54 360 0.0 0.9 0.00 0.00 0.00 80 1019.9
20260507040430 54 360 0.0 0.0 0.00 0.00 0.00 79 1019.9
20260507035930 55 360 0.0 0.0 0.00 0.00 0.00 79 1019.9
20260507035400 55 360 0.0 0.9 0.00 0.00 0.00 79 1019.8
20260507034900 55 360 0.0 0.9 0.00 0.00 0.00 78 1019.8
20260507034430 55 360 0.0 0.9 0.00 0.00 0.00 78 1019.8
20260507033900 56 360 0.0 0.0 0.00 0.00 0.00 78 1019.7
20260507032930 56 250 0.0 1.7 0.00 0.00 0.00 77 1019.7
20260507032430 56 250 0.0 1.7 0.00 0.00 0.00 77 1019.6
20260507031930 57 73 0.0 0.0 0.00 0.00 0.00 77 1019.6
20260507031430 57 71 0.0 0.0 0.00 0.00 0.00 76 1019.6
20260507030930 57 71 0.0 0.9 0.00 0.00 0.00 76 1019.5
20260507030400 57 70 0.0 0.9 0.00 0.00 0.00 76 1019.5
20260507025900 58 223 0.0 0.0 0.00 0.00 0.00 75 1019.5
20260507024930 58 223 0.0 0.0 0.00 0.00 0.00 74 1019.3
20260507024430 59 223 0.0 0.9 0.00 0.00 0.00 74 1019.3
20260507023900 59 223 0.0 0.9 0.00 0.00 0.00 73 1019.3
20260507022929 60 223 0.0 0.9 0.00 0.00 0.00 72 1019.3
20260507022400 60 298 0.0 0.9 0.00 0.00 0.00 72 1019.3
20260507021929 60 355 0.0 0.9 0.00 0.00 0.00 72 1019.3
20260507021430 61 320 0.0 1.7 0.00 0.00 0.00 71 1019.3
20260507020859 61 320 0.0 1.7 0.00 0.00 0.00 71 1019.3
20260507020359 61 119 0.0 2.6 0.00 0.00 0.00 70 1019.3
20260507015930 61 119 0.0 2.6 0.00 0.00 0.00 69 1019.3
20260507015359 62 98 0.0 1.7 0.00 0.00 0.00 69 1019.3
20260507014859 62 84 0.0 1.7 0.00 0.00 0.00 68 1019.3
20260507013859 63 125 0.0 2.6 0.00 0.00 0.00 68 1019.3
20260507013430 63 122 0.0 2.6 0.00 0.00 0.00 67 1019.3
20260507012930 63 127 0.9 4.3 0.00 0.00 0.00 67 1019.3